Location: Clanezzo
(45.7500°N, 9.6000°E)
Time: 13:52:48
(UTC+00:00)

SPROUT - Pass Details

Date: 07 July 2022
Orbit: 588 x 598 km, 97.9° (Epoch: 19 August)

Event Time Altitude Azimuth Distance (km) Brightness Sun altitude
Exits shadow 01:16:42 17° 263° (W) 1,497 ? -17.2°
Maximum altitude 01:16:59 18° 268° (W) 1,492 ? -17.2°
Drops below altitude 10° 01:19:49 10° 311° (NW) 1,926 ? -17.0°
Sets 01:22:37 0° 331° (NNW) 2,835 ? -16.7°
